www.pogodaiklimat.ru

Погода и климат >> Архив погоды >> Парагвай >> Асунсьон


ПОГОДА в Асунсьоне

  • Прогноз погоды в Асунсьоне
  • Монитор погоды в Асунсьоне

АРХИВ ПОГОДЫ в Асунсьоне

Время (UTC), дата Ветер
(напр.,м/с)
 
Видим.   Явления Облачность Т
(С)
Тd
(С)
f
(%)
Тe
(С)
Тes
(С)
Комфортность P
(гПа)
Po
(гПа)
Тmin
(С)
Tmax
(С)
R
(мм)
R24
(мм)
S
(см)
21 16.05 В 2 20 км 6/1 1000 м
[Cu Sc Ac und]
+24.4 +17.2 64 +28 +28 душно 1018.0 1008.3
00 17.05 ЮВ 2 12 км дым 1/0 2000 м
[Ac trans]
+19.6 +17.0 85 +22 +22 комфорт 1018.8 1009.0 +25.4
03 17.05 штиль 0 20 км 8/0 2000 м
[Ac und]
+19.2 +17.1 88 +21 +21 комфорт 1018.5 1008.7
06 17.05 ЮВ 2 20 км ясно +18.2 +16.2 88 +19 +19 1016.9 1007.0
09 17.05 В 3 20 км 4/0 2000 м
[Ac trans]
+18.6 +16.0 85 +20 +20 1016.7 1006.9
12 17.05 В 4 20 км ясно +20.6 +16.4 77 +24 +26 комфорт 1017.6 1007.8 +18.0
15 17.05 СВ 6 20 км 1/1 1000 м
[Cu hum]
+24.2 +17.2 65 +28 +32 душно 1017.2 1007.5
18 17.05 СВ 5 20 км 4/4 1000 м
[Cu hum]
+25.8 +18.0 62 +30 +33 душно 1014.4 1004.9
21 17.05 В 2 15 км дым 1/1 1000 м
[Sc diur, vesp]
+24.4 +19.0 72 +29 +29 душно 1013.5 1003.9
00 18.05 ЮВ 3 9000 м дымка ясно +21.0 +18.0 83 +26 +26 душно 1013.7 1004.0 +26.4
03 18.05 В 3 20 км ясно +20.9 +17.9 83 +25 +25 комфорт 1013.6 1003.9
06 18.05 В 2 20 км 5/1 1000 м
[Sc Ac trans]
+20.6 +18.0 85 +25 +25 комфорт 1013.0 1003.3
09 18.05 СВ 4 20 км 6/6 800 м
[Cu Sc]
+20.6 +17.8 84 +24 +24 комфорт 1013.4 1003.7
12 18.05 В 4 20 км 1/1 800 м
[Cu Sc]
+22.2 +17.6 75 +27 +28 душно 1014.8 1005.1 +19.8
15 18.05 В 5 20 км 1/0 2000 м
[Ac und]
+25.0 +18.6 68 +30 +35 душно 1015.3 1005.8
18 18.05 СВ 3 20 км 4/1 1000 м
[Cu hum Ac und]
+27.2 +19.3 62 +33 +37 очень
душно
1013.7 1004.2
21 18.05 В 2 20 км 5/0 2000 м
[Ac und]
+25.2 +18.5 66 +30 +30 душно 1013.6 1004.0
00 19.05 ЮВ 2 9000 м дым 9/0 2000 м
[Ac und]
+23.0 +19.8 82 +30 +30 очень
душно
1015.2 1005.5 +27.4
03 19.05 штиль 0 20 км 9/3 1000 м
[Cu Sc Ac As]
+22.8 +19.8 83 +29 +29 очень
душно
1015.9 1006.2
06 19.05 В 4 20 км 9/3 1000 м
[Cu Sc Ac As]
+22.8 +19.7 83 +29 +29 очень
душно
1015.0 1005.3
09 19.05 В 4 20 км 8/1 1000 м
[Cu Sc Ac As]
+22.2 +17.2 73 +27 +27 душно 1014.2 1004.5
12 19.05 СВ 5 20 км гроза без осадков 9/5 800 м
[Cb cap Ac As]
+21.6 +17.5 77 +26 +26 душно 1014.2 1004.5 +21.2
15 19.05 В 3 20 км в посл. час гроза 8/3 800 м
[Cu Sc Ac As]
+24.2 +19.1 73 +29 +32 душно 1014.5 1004.9
18 19.05 В 21 20 км 9/4 600 м
[Cu Sc Ac As]
+23.6 +19.5 78 +29 +29 душно 1014.1 1004.5
21 19.05 СВ 2 20 км {дождь} 8/4 600 м
[Cu Sc Ac As]
+21.6 +20.4 93 +27 +27 душно 1013.5 1003.8 0.9
00 20.05 штиль 0 20 км 4/1 1000 м
[Sc Ac trans]
+20.2 +18.5 90 +23 +23 комфорт 1014.1 1004.4 +24.2
03 20.05 В 3 20 км 8/1 1000 м
[Sc Ac und]
+21.2 +19.2 88 +26 +26 душно 1014.2 1004.5
06 20.05 В 2 20 км 1/0
[Ac trans]
+19.8 +18.5 92 +23 +23 комфорт 1013.7 1004.0
09 20.05 штиль 0 20 км 8/0 2000 м
[Ac und]
+19.6 +18.6 94 +22 +22 комфорт 1013.4 1003.7
12 20.05 СВ 1 20 км 8/8 900 м
[Sc Ac und]
+21.0 +19.4 91 +27 +27 душно 1014.2 1004.5 +19.0 0.9
15 20.05 СВ 2 20 км 9/9 900 м
[Sc Ac cast]
+24.2 +21.7 86 +31 +32 очень
душно
1014.3 1004.7
18 20.05 СВ 4 20 км 8/8 900 м
[Sc Ac cast]
+26.4 +19.7 67 +32 +33 очень
душно
1011.3 1001.9
21 20.05 В 2 20 км 8/8 1000 м
[Sc Ci]
+25.0 +20.6 77 +31 +31 очень
душно
1011.0 1001.4
00 21.05 СВ 2 20 км зарница 9/1 1200 м
[Cb cap Ac und Cs]
+22.8 +20.0 84 +29 +29 очень
душно
1011.3 1001.7 +26.8
03 21.05 В 2 20 км зарница {гроза} 9/1 1200 м
[Cb cap Ac As Cs]
+23.0 +20.0 83 +30 +30 очень
душно
1011.2 1001.6
06 21.05 СВ 2 20 км зарница {гроза} 10/1 1200 м
[Cb cap Ac As]
+23.2 +19.7 81 +30 +30 очень
душно
1010.2 1000.6
09 21.05 ЮЗ 2 20 км зарница {гроза} 9/8 1000 м
[Cb cap Ac As]
+21.8 +20.4 92 +28 +28 душно 1010.6 1000.9
12 21.05 Ю 3 10 км гроза без осадков 10/8 1000 м
[Cb cap Ac As]
+21.8 +20.6 93 +28 +28 душно 1012.8 1003.1 +21.0
15 21.05 ЮЗ 2 20 км 10/10 360 м
[Sc]
+22.0 +20.6 92 +28 +28 душно 1013.5 1003.8 0.1
18 21.05 Ю 1 9000 м гроза, ливневой дождь 10/10 210 м
[Cb cap]
+21.2 +20.9 98 +27 +27 душно 1012.3 1002.6 4
21 21.05 ЮЗ 4 5000 м слаб. дождь {гроза} 10/10 150 м
[Sc]
+20.8 +20.8 100 +26 +26 душно 1012.3 1002.6 6
00 22.05 Ю 3 9000 м слаб. дождь 10/10 150 м
[Sc]
+20.2 +19.8 98 +24 +24 комфорт 1013.0 1003.2 +23.4 2
03 22.05 Ю 3 15 км слаб. дождь 10/10 150 м
[Sc]
+19.6 +18.7 95 +22 +22 комфорт 1014.0 1004.3 0.5
06 22.05 ЮЗ 6 6000 м слаб. дождь 10/8 150 м
[Sc As trans]
+19.0 +18.5 97 +20 +20 1014.8 1005.0 0.8
09 22.05 ЮЗ 5 15 км слаб. дождь 10/8 150 м
[Sc As trans]
+17.4 +16.7 96 +17 +17 1014.7 1004.9 1
12 22.05 ЮЗ 4 6000 м слаб. морось {дождь} 10/10 150 м
[St]
+17.8 +16.6 93 +18 +18 1016.2 1006.3 +17.4 0.2
15 22.05 Ю 6 20 км в посл. час морось 10/10 240 м
[Sc]
+18.6 +17.3 92 +19 +19 1016.7 1006.9 0.0
21 22.05 ЮЗ 3 20 км 10/5 450 м
[Sc Ac As]
+18.2 +16.2 88 +19 +19 1015.9 1006.0 0.0
00 23.05 ЮЗ 3 20 км 10/6 800 м
[Sc Ac As]
+17.6 +16.6 94 +18 +18 1016.7 1006.8 +20.2
03 23.05 Ю 3 20 км 9/5 300 м
[Sc Ac As]
+17.4 +15.1 86 +17 +17 1017.1 1007.2
06 23.05 Ю 5 20 км 9/6 210 м
[Sc Ac As]
+17.2 +15.3 89 +17 +17 1016.1 1006.2
09 23.05 Ю 2 12 км слаб. дождь {морось} 10/8 600 м
[Sc Ac As]
+16.6 +15.4 93 +17 +17 1016.6 1006.7 1
12 23.05 Ю 5 12 км дымка {дождь} 10/6 300 м
[Cu Sc Ac As]
+16.0 +14.5 91 +15 +15 1017.5 1007.6 +16.0 0.7
15 23.05 ЮЗ 4 12 км дымка {дождь} 10/6 240 м
[St Ac As]
+16.6 +16.0 96 +16 +17 1018.4 1008.5 0.2
18 23.05 ЮЗ 3 1500 м слаб. дождь 10/10 210 м
[Sc]
+16.4 +15.0 91 +16 +16 1016.9 1007.0 0.4

 

Местоположение метеостанции Асунсьон (Парагвай): широта -25.25 долгота -57.51 высота над уровнем моря 101 м.

В архиве по умолчанию представлена погода в Асунсьоне за последнюю неделю. Архивные данные за месяц целиком и за предыдущие месяцы, начиная с января 2011 года, Вы можете получить, выбрав интересующий диапазон дат из раскрывающегося списка и нажав кнопку "Ввод!".


*Определитесь, кто Вы:
робот инопланетянин человек

Внимание! Время в таблицах - всемирное. Для получения местного времени необходимо прибавить поправку, которая равна -4 ч.

Смотрите также архив погоды в соседних городах и на ближайших метеорологических станциях:

Погода в Парагуари (Парагвай) (57 км)
Погода в Коронель-Овьедо (Парагвай) (118 км)
Погода в Куйкуйо (Парагвай) (120 км)
Погода в Вильяррике (Парагвай) (122 км)
Погода в Сан Эстанислао (Парагвай) (128 км)
Погода в Формосе (Аргентина) (128 км)
Погода в Сан-Педро (Парагвай) (139 км)
Погода в Грал Бругуез (Парагвай) (144 км)
Погода в Каасапе (Парагвай) (156 км)
Погода в Сан Хуан Батистута (Парагвай) (161 км)

Пояснения к столбцам:

Ветер - указаны скорость ветра в м/с - средняя за 10 мин, порывы в срок и между сроками (в фигурных скобках) и направление, откуда дует ветер: С - северный, СВ - северо-восточный, В - восточный, ЮВ - юго-восточный, Ю - южный, ЮЗ - юго-западный, З - западный, СЗ - северо-западный.
Видимость - горизонтальная дальность видимости в метрах или километрах. При видимости от 1 до 10 км при отсутствии осадков обычно наблюдается дымка, при ухудшении видимости до 1 км и менее - туман. В сухую погоду видимость может ухудшаться дымом, пылью или мглою.
Явления - указаны атмосферные явления, наблюдавшиеся в срок или в последний час перед сроком; фигурными скобками обозначены явления, наблюдавшиеся между сроками (за 1-3 часа до срока); квадратными скобками обозначены град или гололедные отложения с указанием их диаметра в мм.
Облачность - указаны через наклонную черту общая и нижняя облачность в баллах и высота нижней границы облаков в метрах; квадратными скобками обозначены формы облаков: Ci - перистые, Cs - перисто-слоистые, Cc - перисто-кучевые, Ac - высококучевые, As - высокослоистые, Sc - слоисто-кучевые, Ns - слоисто-дождевые, Cu - кучевые, Cb - кучево-дождевые. Подробнее классификацию облаков см. в Атласе облаков (PDF).
T - Температура воздуха - температура, измеренная на высоте 2 м над землей.
Td - Температура точки росы - температура, при понижении до которой содержащийся в воздухе водяной пар достигнет насыщения.
f - Относительная влажность воздуха - влажноcть воздуха, измеренная на высоте 2 м над землей.
Te - Эффективная температура - температура, которую ощущает одетый по сезону человек в тени. Характеристика душности погоды. При расчете учитывается влияние влажности воздуха и скорости ветра на теплоощущения человека.
Tes - Эффективная температура на солнце - температура, которую ощущает человек, с поправкой на солнечный нагрев. Характеристика знойности погоды. Зависит от высоты солнца над горизонтом, облачности и скорости ветра. Ночью, в пасмурную погоду, а также при ветре 12 м/с и более поправка равна нулю.
P - Атмосферное давление - приведенное к уровню моря атмосферное давление.
Po - Атмосферное давление - измеренное на уровне метеостанции атмосферное давление.
Tmin - Минимальная температура - минимум температуры воздуха на высоте 2 м над землей.
Tmax - Максимальная температура - максимум температуры воздуха на высоте 2 м над землей.
R - Количество осадков - Количество выпавших осадков за период времени, мм. При наведении курсора мыши на число - период времени, за который выпало указанное количество осадков.
R24 - Количество осадков - Количество выпавших осадков за 24 часа, мм.
S - Снежный покров - Высота снежного покрова, см. При наведении курсора мыши на число - состояние снежного покрова и степень покрытия местности в баллах.